Location: Recife
(8.0585°S, 34.8848°W)
Time: 14:55:00
(UTC-03:00)

Tiros 1 despin weight - Pass Details

Date: 22 April 2026
Orbit: 555 x 591 km, 48.2° (Epoch: 14 May)

Event Time Altitude Azimuth Distance (km) Brightness Sun altitude
Rises 23:46:17 0° 281° (W) 2,811 - -81.7°
Reaches altitude 10° 23:49:52 10° 251° (WSW) 1,915 - -81.0°
Maximum altitude 23:51:42 12° 226° (SW) 1,764 - -80.6°
Drops below altitude 10° 23:53:33 10° 201° (SSW) 1,917 - -80.2°
Sets 23:57:09 0° 171° (S) 2,817 - -79.4°
